Tracking 35237 objects as of 6-Sep-2026
HD Live streaming from Space Station
objects crossing your sky now

COSMOS 256


10-day predictions
COSMOS 256 is classified as:


NORAD ID: 3576
Int'l Code: 1968-106A
Launch date: November 30, 1968
Source: Commonwealth of Independent States (former USSR) (CIS)
Launch site: PLESETSK MISSILE AND SPACE COMPLEX (PKMTR)
Your satellite tracking list
Your tracking list is empty




NASA's NSSDC Master Catalog

Two Line Element Set (TLE):
1  3576U 68106A   26249.49960941 -.00000163  00000-0 -37252-3 0  9991
2  3576  74.0517 329.3213 0034299 314.9039  55.8915 13.16885091776405
Source of the keplerian elements: AFSPC